Regional Weather Roundup
Issued by NWS Newport/Morehead, NC

Home | Current Version | Previous Version | Text Only | Print | Product List | Glossary On
Versions: 1 2 3 4 5 6 7 8 9 10 11 12 13 14 15 16 17 18 19 20 21 22 23 24 25 26 27 28 29 30 31 32 33 34 35 36 37 38 39 40 41 42 43 44 45 46 47 48 49 50
000
ASUS42 KMHX 251825
RWRMHX
WEATHER ROUNDUP FOR EASTERN NORTH CAROLINA
NATIONAL WEATHER SERVICE NEWPORT/MOREHEAD CITY NC
200 PM EDT THU MAY 25 2017

NOTE: "FAIR" INDICATES FEW OR NO CLOUDS BELOW 12,000 FEET
WITH NO SIGNIFICANT WEATHER AND/OR OBSTRUCTIONS TO VISIBILITY

NCZ015>017-031-032-045>047-102-103-251900-
NORTH COAST

CITY           SKY/WX    TMP DP  RH WIND       PRES   REMARKS
EDENTON        CLOUDY    78  62  57 SW10G18   29.55S
ELIZABETH CITY MOSUNNY   80  62  54 SW17G28   29.53F
KITTY HAWK     CLEAR     81  56  43 SW6G21    29.53F
MANTEO         MOSUNNY   78  59  51 SW20G26   29.55F

$$

NCZ045>047-081-094-103-104-251900-
CENTRAL COAST

CITY           SKY/WX    TMP DP  RH WIND       PRES   REMARKS
FRISCO         NOT AVBL

$$

NCZ095-097-098-100-101-251900-
SOUTHERN COAST

CITY           SKY/WX    TMP DP  RH WIND       PRES   REMARKS
BEAUFORT       SUNNY     77  60  55 SW29G38   29.61S
CEDAR ISLAND   NOT AVBL
JACKSONVILLE   MOSUNNY   77  56  48 SW13      29.57F
PINEY ISLAND   CLEAR    N/A N/A N/A SW28G40   29.58S
WILMINGTON     CLOUDY    73  61  65 SW20G29   29.61F


$$

NCZ011>013-027>030-043-044-078>080-089-090>093-098-251900-
COASTAL PLAIN

CITY           SKY/WX    TMP DP  RH WIND       PRES   REMARKS
AHOSKIE          N/A     76  59  55 S8        29.52F
CLINTON        MOSUNNY   76  54  45 SW17G25   29.59F
ELIZABETHTOWN  SUNNY     76  53  44 SW14G26   29.60F
GOLDSBORO      PTSUNNY   77  55  45 SW17G28   29.55S
GREENVILLE     MOSUNNY   77  55  47 SW18G24   29.59S
HAVELOCK       MOSUNNY   80  56  43 SW24G36   29.60S
KENANSVILLE    PTSUNNY   75  55  50 SW13G21   29.58F
KINSTON        PTSUNNY   77  54  44 SW18G25   29.58S
NEW BERN       SUNNY     79  53  40 SW14G28   29.60R
RICHLANDS      PTSUNNY   75  57  53 SW16G22   29.59F
ROCKY MOUNT    MOSUNNY   76  56  49 SW18G26   29.55S
WASHINGTON     PTSUNNY   78  56  46 SW18G28   29.56S
WHITEVILLE     PTSUNNY   74  53  48 SW13G20   29.62S

$$

AMZ130-135-150-152-154-156-158-170-250-252-270-ANZ085-086-088-633-658-670-251900-
MARINE OBSERVATIONS

STATION/POSITION TIME  TEMP    WIND        PRES    WAVE   SWELL
                       AIR SEA DIR/SP/G            HT/PER HT/PER
                 (UTC) (F)     (DEG/KT/KT) (MB)    (FT/S) (FT/S)
CHESAPEAKE LIGHT NOT AVBL
64 E VA BEACH    1750   68 65  190/ 16/ 16 1001.6    6/ 8   5/ 8
DUCK             1800   78 63  200/ 15/ 18  999.4
2 E DUCK         1800      65                N/A     3/ 7
OREGON INLET     1800   76 71  190/ 23/ 27 1001.0
13E OREGON INLT  1748      66                N/A     7/ 8   3/11
HATTERAS CG      1800   76 73  210/ 19/ 27 1002.1
DIAMOND BUOY     1750   76 78  230/ 25/ 31 1002.8    9/ 8   3/12
CAPE LOOKOUT     1800   76     230/ 18/ 26 1002.5
BEAUFORT LAB     1800   76 73  220/ 11/ 20 1002.0
30 SE NEW RVR IN 1808   74 75  240/ 23/ 29 1003.3
30 SE NEW RVR IN 1743      75                N/A    10/ 9   2/11
27 SE WRIGHTSVLE 1808   73 75  220/ 23/ 31 1003.3
5 SE WRIGHTSVLE  1808   73 74  210/ 17/ 29 1003.2
225 S CAPE HAT   1750   77 76  170/ 23/ 29 1007.8   10/ 8
41 SE CHARLESTON 1800   72 75  250/ 27/ 33 1006.5

$$




USA.gov is the U.S. government's official web portal to all federal, state and local government web resources and services.